Data supplied by UK-AIR on 26/9/2014
All Data GMT hour ending 
Status: R =Ratified P=Provisional,P*=As supplied
,,London Harrow Stanmore,,,,,,,,,,,,,,,,,,,,,,,
Date,time,"Non-volatile PM<sub>2.5</sub> (Hourly measured)",status,unit,"PM<sub>2.5</sub> particulate matter (Hourly measured)",status,unit,"Volatile PM<sub>2.5</sub> (Hourly measured)",status,unit
 
01-01-2013,01:00,12,R,ugm-3 (TEOM FDMS),18,R,ugm-3 (TEOM FDMS),5,R,ugm-3 (TEOM FDMS)
01-01-2013,02:00,6,R,ugm-3 (TEOM FDMS),8,R,ugm-3 (TEOM FDMS),2,R,ugm-3 (TEOM FDMS)
01-01-2013,03:00,3,R,ugm-3 (TEOM FDMS),6,R,ugm-3 (TEOM FDMS),3,R,ugm-3 (TEOM FDMS)
01-01-2013,04:00,3,R,ugm-3 (TEOM FDMS),-2,R,ugm-3 (TEOM FDMS),-5,R,ugm-3 (TEOM FDMS)
01-01-2013,05:00,5,R,ugm-3 (TEOM FDMS),5,R,ugm-3 (TEOM FDMS),1,R,ugm-3 (TEOM FDMS)
01-01-2013,06:00,-1,R,ugm-3 (TEOM FDMS),-1,R,ugm-3 (TEOM FDMS),-0,R,ugm-3 (TEOM FDMS)
01-01-2013,07:00,4,R,ugm-3 (TEOM FDMS),3,R,ugm-3 (TEOM FDMS),-0,R,ugm-3 (TEOM FDMS)
01-01-2013,08:00,3,R,ugm-3 (TEOM FDMS),3,R,ugm-3 (TEOM FDMS),-0,R,ugm-3 (TEOM FDMS)
01-01-2013,09:00,4,R,ugm-3 (TEOM FDMS),2,R,ugm-3 (TEOM FDMS),-2,R,ugm-3 (TEOM FDMS)
01-01-2013,10:00,4,R,ugm-3 (TEOM FDMS),2,R,ugm-3 (TEOM FDMS),-2,R,ugm-3 (TEOM FDMS)
01-01-2013,11:00,6,R,ugm-3 (TEOM FDMS),4,R,ugm-3 (TEOM FDMS),-1,R,ugm-3 (TEOM FDMS)
01-01-2013,12:00,3,R,ugm-3 (TEOM FDMS),3,R,ugm-3 (TEOM FDMS),0,R,ugm-3 (TEOM FDMS)
01-01-2013,13:00,5,R,ugm-3 (TEOM FDMS),4,R,ugm-3 (TEOM FDMS),-0,R,ugm-3 (TEOM FDMS)
01-01-2013,14:00,2,R,ugm-3 (TEOM FDMS),3,R,ugm-3 (TEOM FDMS),1,R,ugm-3 (TEOM FDMS)
01-01-2013,15:00,4,R,ugm-3 (TEOM FDMS),6,R,ugm-3 (TEOM FDMS),2,R,ugm-3 (TEOM FDMS)
01-01-2013,16:00,8,R,ugm-3 (TEOM FDMS),9,R,ugm-3 (TEOM FDMS),1,R,ugm-3 (TEOM FDMS)
01-01-2013,17:00,6,R,ugm-3 (TEOM FDMS),7,R,ugm-3 (TEOM FDMS),1,R,ugm-3 (TEOM FDMS)
01-01-2013,18:00,7,R,ugm-3 (TEOM FDMS),3,R,ugm-3 (TEOM FDMS),-3,R,ugm-3 (TEOM FDMS)
01-01-2013,19:00,6,R,ugm-3 (TEOM FDMS),8,R,ugm-3 (TEOM FDMS),2,R,ugm-3 (TEOM FDMS)
01-01-2013,20:00,9,R,ugm-3 (TEOM FDMS),10,R,ugm-3 (TEOM FDMS),1,R,ugm-3 (TEOM FDMS)
01-01-2013,21:00,8,R,ugm-3 (TEOM FDMS),9,R,ugm-3 (TEOM FDMS),1,R,ugm-3 (TEOM FDMS)
01-01-2013,22:00,8,R,ugm-3 (TEOM FDMS),9,R,ugm-3 (TEOM FDMS),1,R,ugm-3 (TEOM FDMS)
01-01-2013,23:00,9,R,ugm-3 (TEOM FDMS),8,R,ugm-3 (TEOM FDMS),-0,R,ugm-3 (TEOM FDMS)
01-01-2013,24:00,8,R,ugm-3 (TEOM FDMS),6,R,ugm-3 (TEOM FDMS),-2,R,ugm-3 (TEOM FDMS)
02-01-2013,01:00,4,R,ugm-3 (TEOM FDMS),4,R,ugm-3 (TEOM FDMS),1,R,ugm-3 (TEOM FDMS)
02-01-2013,02:00,8,R,ugm-3 (TEOM FDMS),9,R,ugm-3 (TEOM FDMS),1,R,ugm-3 (TEOM FDMS)
02-01-2013,03:00,4,R,ugm-3 (TEOM FDMS),5,R,ugm-3 (TEOM FDMS),1,R,ugm-3 (TEOM FDMS)
02-01-2013,04:00,6,R,ugm-3 (TEOM FDMS),9,R,ugm-3 (TEOM FDMS),3,R,ugm-3 (TEOM FDMS)
02-01-2013,05:00,6,R,ugm-3 (TEOM FDMS),5,R,ugm-3 (TEOM FDMS),-1,R,ugm-3 (TEOM FDMS)
02-01-2013,06:00,6,R,ugm-3 (TEOM FDMS),7,R,ugm-3 (TEOM FDMS),1,R,ugm-3 (TEOM FDMS)
02-01-2013,07:00,6,R,ugm-3 (TEOM FDMS),8,R,ugm-3 (TEOM FDMS),2,R,ugm-3 (TEOM FDMS)
02-01-2013,08:00,5,R,ugm-3 (TEOM FDMS),4,R,ugm-3 (TEOM FDMS),-1,R,ugm-3 (TEOM FDMS)
02-01-2013,09:00,7,R,ugm-3 (TEOM FDMS),10,R,ugm-3 (TEOM FDMS),3,R,ugm-3 (TEOM FDMS)
02-01-2013,10:00,9,R,ugm-3 (TEOM FDMS),11,R,ugm-3 (TEOM FDMS),1,R,ugm-3 (TEOM FDMS)
02-01-2013,11:00,8,R,ugm-3 (TEOM FDMS),9,R,ugm-3 (TEOM FDMS),1,R,ugm-3 (TEOM FDMS)
02-01-2013,12:00,5,R,ugm-3 (TEOM FDMS),5,R,ugm-3 (TEOM FDMS),0,R,ugm-3 (TEOM FDMS)
02-01-2013,13:00,8,R,ugm-3 (TEOM FDMS),10,R,ugm-3 (TEOM FDMS),2,R,ugm-3 (TEOM FDMS)
02-01-2013,14:00,9,R,ugm-3 (TEOM FDMS),10,R,ugm-3 (TEOM FDMS),1,R,ugm-3 (TEOM FDMS)
02-01-2013,15:00,9,R,ugm-3 (TEOM FDMS),11,R,ugm-3 (TEOM FDMS),3,R,ugm-3 (TEOM FDMS)
02-01-2013,16:00,8,R,ugm-3 (TEOM FDMS),11,R,ugm-3 (TEOM FDMS),2,R,ugm-3 (TEOM FDMS)
02-01-2013,17:00,8,R,ugm-3 (TEOM FDMS),8,R,ugm-3 (TEOM FDMS),0,R,ugm-3 (TEOM FDMS)
02-01-2013,18:00,10,R,ugm-3 (TEOM FDMS),11,R,ugm-3 (TEOM FDMS),1,R,ugm-3 (TEOM FDMS)
02-01-2013,19:00,10,R,ugm-3 (TEOM FDMS),12,R,ugm-3 (TEOM FDMS),2,R,ugm-3 (TEOM FDMS)
02-01-2013,20:00,12,R,ugm-3 (TEOM FDMS),14,R,ugm-3 (TEOM FDMS),1,R,ugm-3 (TEOM FDMS)
02-01-2013,21:00,9,R,ugm-3 (TEOM FDMS),11,R,ugm-3 (TEOM FDMS),3,R,ugm-3 (TEOM FDMS)
02-01-2013,22:00,10,R,ugm-3 (TEOM FDMS),12,R,ugm-3 (TEOM FDMS),2,R,ugm-3 (TEOM FDMS)
02-01-2013,23:00,4,R,ugm-3 (TEOM FDMS),6,R,ugm-3 (TEOM FDMS),1,R,ugm-3 (TEOM FDMS)
02-01-2013,24:00,9,R,ugm-3 (TEOM FDMS),11,R,ugm-3 (TEOM FDMS),3,R,ugm-3 (TEOM FDMS)
03-01-2013,01:00,9,R,ugm-3 (TEOM FDMS),11,R,ugm-3 (TEOM FDMS),2,R,ugm-3 (TEOM FDMS)
03-01-2013,02:00,8,R,ugm-3 (TEOM FDMS),12,R,ugm-3 (TEOM FDMS),4,R,ugm-3 (TEOM FDMS)
03-01-2013,03:00,7,R,ugm-3 (TEOM FDMS),8,R,ugm-3 (TEOM FDMS),1,R,ugm-3 (TEOM FDMS)
03-01-2013,04:00,7,R,ugm-3 (TEOM FDMS),9,R,ugm-3 (TEOM FDMS),2,R,ugm-3 (TEOM FDMS)
03-01-2013,05:00,6,R,ugm-3 (TEOM FDMS),9,R,ugm-3 (TEOM FDMS),4,R,ugm-3 (TEOM FDMS)
03-01-2013,06:00,8,R,ugm-3 (TEOM FDMS),11,R,ugm-3 (TEOM FDMS),3,R,ugm-3 (TEOM FDMS)
03-01-2013,07:00,8,R,ugm-3 (TEOM FDMS),9,R,ugm-3 (TEOM FDMS),1,R,ugm-3 (TEOM FDMS)
03-01-2013,08:00,8,R,ugm-3 (TEOM FDMS),10,R,ugm-3 (TEOM FDMS),3,R,ugm-3 (TEOM FDMS)
03-01-2013,09:00,10,R,ugm-3 (TEOM FDMS),12,R,ugm-3 (TEOM FDMS),2,R,ugm-3 (TEOM FDMS)
03-01-2013,10:00,8,R,ugm-3 (TEOM FDMS),11,R,ugm-3 (TEOM FDMS),3,R,ugm-3 (TEOM FDMS)
03-01-2013,11:00,7,R,ugm-3 (TEOM FDMS),9,R,ugm-3 (TEOM FDMS),2,R,ugm-3 (TEOM FDMS)
03-01-2013,12:00,7,R,ugm-3 (TEOM FDMS),7,R,ugm-3 (TEOM FDMS),-0,R,ugm-3 (TEOM FDMS)
03-01-2013,13:00,3,R,ugm-3 (TEOM FDMS),3,R,ugm-3 (TEOM FDMS),1,R,ugm-3 (TEOM FDMS)
03-01-2013,14:00,6,R,ugm-3 (TEOM FDMS),8,R,ugm-3 (TEOM FDMS),2,R,ugm-3 (TEOM FDMS)
03-01-2013,15:00,3,R,ugm-3 (TEOM FDMS),2,R,ugm-3 (TEOM FDMS),-1,R,ugm-3 (TEOM FDMS)
03-01-2013,16:00,5,R,ugm-3 (TEOM FDMS),6,R,ugm-3 (TEOM FDMS),1,R,ugm-3 (TEOM FDMS)
03-01-2013,17:00,8,R,ugm-3 (TEOM FDMS),11,R,ugm-3 (TEOM FDMS),2,R,ugm-3 (TEOM FDMS)
03-01-2013,18:00,9,R,ugm-3 (TEOM FDMS),9,R,ugm-3 (TEOM FDMS),0,R,ugm-3 (TEOM FDMS)
03-01-2013,19:00,6,R,ugm-3 (TEOM FDMS),7,R,ugm-3 (TEOM FDMS),1,R,ugm-3 (TEOM FDMS)
03-01-2013,20:00,6,R,ugm-3 (TEOM FDMS),8,R,ugm-3 (TEOM FDMS),2,R,ugm-3 (TEOM FDMS)
03-01-2013,21:00,4,R,ugm-3 (TEOM FDMS),7,R,ugm-3 (TEOM FDMS),2,R,ugm-3 (TEOM FDMS)
03-01-2013,22:00,8,R,ugm-3 (TEOM FDMS),13,R,ugm-3 (TEOM FDMS),4,R,ugm-3 (TEOM FDMS)
03-01-2013,23:00,4,R,ugm-3 (TEOM FDMS),7,R,ugm-3 (TEOM FDMS),3,R,ugm-3 (TEOM FDMS)
03-01-2013,24:00,5,R,ugm-3 (TEOM FDMS),7,R,ugm-3 (TEOM FDMS),2,R,ugm-3 (TEOM FDMS)
04-01-2013,01:00,5,R,ugm-3 (TEOM FDMS),8,R,ugm-3 (TEOM FDMS),3,R,ugm-3 (TEOM FDMS)
04-01-2013,02:00,4,R,ugm-3 (TEOM FDMS),5,R,ugm-3 (TEOM FDMS),1,R,ugm-3 (TEOM FDMS)
04-01-2013,03:00,4,R,ugm-3 (TEOM FDMS),7,R,ugm-3 (TEOM FDMS),3,R,ugm-3 (TEOM FDMS)
04-01-2013,04:00,-1,R,ugm-3 (TEOM FDMS),2,R,ugm-3 (TEOM FDMS),3,R,ugm-3 (TEOM FDMS)
04-01-2013,05:00,7,R,ugm-3 (TEOM FDMS),10,R,ugm-3 (TEOM FDMS),3,R,ugm-3 (TEOM FDMS)
04-01-2013,06:00,6,R,ugm-3 (TEOM FDMS),7,R,ugm-3 (TEOM FDMS),1,R,ugm-3 (TEOM FDMS)
04-01-2013,07:00,6,R,ugm-3 (TEOM FDMS),9,R,ugm-3 (TEOM FDMS),3,R,ugm-3 (TEOM FDMS)
04-01-2013,08:00,5,R,ugm-3 (TEOM FDMS),4,R,ugm-3 (TEOM FDMS),-1,R,ugm-3 (TEOM FDMS)
04-01-2013,09:00,4,R,ugm-3 (TEOM FDMS),5,R,ugm-3 (TEOM FDMS),1,R,ugm-3 (TEOM FDMS)
04-01-2013,10:00,4,R,ugm-3 (TEOM FDMS),5,R,ugm-3 (TEOM FDMS),1,R,ugm-3 (TEOM FDMS)
04-01-2013,11:00,7,R,ugm-3 (TEOM FDMS),8,R,ugm-3 (TEOM FDMS),2,R,ugm-3 (TEOM FDMS)
04-01-2013,12:00,3,R,ugm-3 (TEOM FDMS),5,R,ugm-3 (TEOM FDMS),2,R,ugm-3 (TEOM FDMS)
04-01-2013,13:00,1,R,ugm-3 (TEOM FDMS),3,R,ugm-3 (TEOM FDMS),2,R,ugm-3 (TEOM FDMS)
04-01-2013,14:00,2,R,ugm-3 (TEOM FDMS),2,R,ugm-3 (TEOM FDMS),0,R,ugm-3 (TEOM FDMS)
04-01-2013,15:00,7,R,ugm-3 (TEOM FDMS),10,R,ugm-3 (TEOM FDMS),3,R,ugm-3 (TEOM FDMS)
04-01-2013,16:00,6,R,ugm-3 (TEOM FDMS),8,R,ugm-3 (TEOM FDMS),2,R,ugm-3 (TEOM FDMS)
04-01-2013,17:00,6,R,ugm-3 (TEOM FDMS),9,R,ugm-3 (TEOM FDMS),3,R,ugm-3 (TEOM FDMS)
04-01-2013,18:00,7,R,ugm-3 (TEOM FDMS),13,R,ugm-3 (TEOM FDMS),6,R,ugm-3 (TEOM FDMS)
04-01-2013,19:00,11,R,ugm-3 (TEOM FDMS),12,R,ugm-3 (TEOM FDMS),0,R,ugm-3 (TEOM FDMS)
04-01-2013,20:00,11,R,ugm-3 (TEOM FDMS),13,R,ugm-3 (TEOM FDMS),3,R,ugm-3 (TEOM FDMS)
04-01-2013,21:00,7,R,ugm-3 (TEOM FDMS),11,R,ugm-3 (TEOM FDMS),4,R,ugm-3 (TEOM FDMS)
04-01-2013,22:00,10,R,ugm-3 (TEOM FDMS),14,R,ugm-3 (TEOM FDMS),4,R,ugm-3 (TEOM FDMS)
04-01-2013,23:00,12,R,ugm-3 (TEOM FDMS),17,R,ugm-3 (TEOM FDMS),6,R,ugm-3 (TEOM FDMS)
04-01-2013,24:00,10,R,ugm-3 (TEOM FDMS),15,R,ugm-3 (TEOM FDMS),5,R,ugm-3 (TEOM FDMS)
05-01-2013,01:00,12,R,ugm-3 (TEOM FDMS),15,R,ugm-3 (TEOM FDMS),3,R,ugm-3 (TEOM FDMS)
05-01-2013,02:00,9,R,ugm-3 (TEOM FDMS),13,R,ugm-3 (TEOM FDMS),4,R,ugm-3 (TEOM FDMS)
05-01-2013,03:00,7,R,ugm-3 (TEOM FDMS),11,R,ugm-3 (TEOM FDMS),4,R,ugm-3 (TEOM FDMS)
05-01-2013,04:00,5,R,ugm-3 (TEOM FDMS),9,R,ugm-3 (TEOM FDMS),4,R,ugm-3 (TEOM FDMS)
05-01-2013,05:00,6,R,ugm-3 (TEOM FDMS),10,R,ugm-3 (TEOM FDMS),3,R,ugm-3 (TEOM FDMS)
05-01-2013,06:00,5,R,ugm-3 (TEOM FDMS),10,R,ugm-3 (TEOM FDMS),6,R,ugm-3 (TEOM FDMS)
05-01-2013,07:00,6,R,ugm-3 (TEOM FDMS),13,R,ugm-3 (TEOM FDMS),7,R,ugm-3 (TEOM FDMS)
05-01-2013,08:00,8,R,ugm-3 (TEOM FDMS),10,R,ugm-3 (TEOM FDMS),2,R,ugm-3 (TEOM FDMS)
05-01-2013,09:00,6,R,ugm-3 (TEOM FDMS),10,R,ugm-3 (TEOM FDMS),5,R,ugm-3 (TEOM FDMS)
05-01-2013,10:00,7,R,ugm-3 (TEOM FDMS),12,R,ugm-3 (TEOM FDMS),6,R,ugm-3 (TEOM FDMS)
05-01-2013,11:00,2,R,ugm-3 (TEOM FDMS),6,R,ugm-3 (TEOM FDMS),4,R,ugm-3 (TEOM FDMS)
05-01-2013,12:00,3,R,ugm-3 (TEOM FDMS),9,R,ugm-3 (TEOM FDMS),6,R,ugm-3 (TEOM FDMS)
05-01-2013,13:00,3,R,ugm-3 (TEOM FDMS),6,R,ugm-3 (TEOM FDMS),3,R,ugm-3 (TEOM FDMS)
05-01-2013,14:00,1,R,ugm-3 (TEOM FDMS),3,R,ugm-3 (TEOM FDMS),2,R,ugm-3 (TEOM FDMS)
05-01-2013,15:00,4,R,ugm-3 (TEOM FDMS),5,R,ugm-3 (TEOM FDMS),1,R,ugm-3 (TEOM FDMS)
05-01-2013,16:00,3,R,ugm-3 (TEOM FDMS),5,R,ugm-3 (TEOM FDMS),2,R,ugm-3 (TEOM FDMS)
05-01-2013,17:00,5,R,ugm-3 (TEOM FDMS),7,R,ugm-3 (TEOM FDMS),2,R,ugm-3 (TEOM FDMS)
05-01-2013,18:00,6,R,ugm-3 (TEOM FDMS),8,R,ugm-3 (TEOM FDMS),2,R,ugm-3 (TEOM FDMS)
05-01-2013,19:00,5,R,ugm-3 (TEOM FDMS),5,R,ugm-3 (TEOM FDMS),1,R,ugm-3 (TEOM FDMS)
05-01-2013,20:00,8,R,ugm-3 (TEOM FDMS),10,R,ugm-3 (TEOM FDMS),3,R,ugm-3 (TEOM FDMS)
05-01-2013,21:00,6,R,ugm-3 (TEOM FDMS),12,R,ugm-3 (TEOM FDMS),6,R,ugm-3 (TEOM FDMS)
05-01-2013,22:00,13,R,ugm-3 (TEOM FDMS),14,R,ugm-3 (TEOM FDMS),2,R,ugm-3 (TEOM FDMS)
05-01-2013,23:00,15,R,ugm-3 (TEOM FDMS),18,R,ugm-3 (TEOM FDMS),3,R,ugm-3 (TEOM FDMS)
05-01-2013,24:00,14,R,ugm-3 (TEOM FDMS),20,R,ugm-3 (TEOM FDMS),6,R,ugm-3 (TEOM FDMS)
06-01-2013,01:00,10,R,ugm-3 (TEOM FDMS),11,R,ugm-3 (TEOM FDMS),1,R,ugm-3 (TEOM FDMS)
06-01-2013,02:00,15,R,ugm-3 (TEOM FDMS),20,R,ugm-3 (TEOM FDMS),5,R,ugm-3 (TEOM FDMS)
06-01-2013,03:00,11,R,ugm-3 (TEOM FDMS),14,R,ugm-3 (TEOM FDMS),3,R,ugm-3 (TEOM FDMS)
06-01-2013,04:00,13,R,ugm-3 (TEOM FDMS),17,R,ugm-3 (TEOM FDMS),4,R,ugm-3 (TEOM FDMS)
06-01-2013,05:00,8,R,ugm-3 (TEOM FDMS),10,R,ugm-3 (TEOM FDMS),2,R,ugm-3 (TEOM FDMS)
06-01-2013,06:00,8,R,ugm-3 (TEOM FDMS),15,R,ugm-3 (TEOM FDMS),7,R,ugm-3 (TEOM FDMS)
06-01-2013,07:00,8,R,ugm-3 (TEOM FDMS),11,R,ugm-3 (TEOM FDMS),3,R,ugm-3 (TEOM FDMS)
06-01-2013,08:00,9,R,ugm-3 (TEOM FDMS),13,R,ugm-3 (TEOM FDMS),4,R,ugm-3 (TEOM FDMS)
06-01-2013,09:00,8,R,ugm-3 (TEOM FDMS),11,R,ugm-3 (TEOM FDMS),3,R,ugm-3 (TEOM FDMS)
06-01-2013,10:00,10,R,ugm-3 (TEOM FDMS),13,R,ugm-3 (TEOM FDMS),3,R,ugm-3 (TEOM FDMS)
06-01-2013,11:00,12,R,ugm-3 (TEOM FDMS),16,R,ugm-3 (TEOM FDMS),4,R,ugm-3 (TEOM FDMS)
06-01-2013,12:00,7,R,ugm-3 (TEOM FDMS),12,R,ugm-3 (TEOM FDMS),5,R,ugm-3 (TEOM FDMS)
06-01-2013,13:00,8,R,ugm-3 (TEOM FDMS),13,R,ugm-3 (TEOM FDMS),6,R,ugm-3 (TEOM FDMS)
06-01-2013,14:00,8,R,ugm-3 (TEOM FDMS),15,R,ugm-3 (TEOM FDMS),6,R,ugm-3 (TEOM FDMS)
06-01-2013,15:00,5,R,ugm-3 (TEOM FDMS),9,R,ugm-3 (TEOM FDMS),4,R,ugm-3 (TEOM FDMS)
06-01-2013,16:00,7,R,ugm-3 (TEOM FDMS),9,R,ugm-3 (TEOM FDMS),2,R,ugm-3 (TEOM FDMS)
06-01-2013,17:00,14,R,ugm-3 (TEOM FDMS),20,R,ugm-3 (TEOM FDMS),6,R,ugm-3 (TEOM FDMS)
06-01-2013,18:00,14,R,ugm-3 (TEOM FDMS),20,R,ugm-3 (TEOM FDMS),7,R,ugm-3 (TEOM FDMS)
06-01-2013,19:00,14,R,ugm-3 (TEOM FDMS),21,R,ugm-3 (TEOM FDMS),7,R,ugm-3 (TEOM FDMS)
06-01-2013,20:00,18,R,ugm-3 (TEOM FDMS),19,R,ugm-3 (TEOM FDMS),1,R,ugm-3 (TEOM FDMS)
06-01-2013,21:00,19,R,ugm-3 (TEOM FDMS),23,R,ugm-3 (TEOM FDMS),4,R,ugm-3 (TEOM FDMS)
06-01-2013,22:00,13,R,ugm-3 (TEOM FDMS),17,R,ugm-3 (TEOM FDMS),5,R,ugm-3 (TEOM FDMS)
06-01-2013,23:00,9,R,ugm-3 (TEOM FDMS),14,R,ugm-3 (TEOM FDMS),5,R,ugm-3 (TEOM FDMS)
06-01-2013,24:00,8,R,ugm-3 (TEOM FDMS),12,R,ugm-3 (TEOM FDMS),4,R,ugm-3 (TEOM FDMS)
07-01-2013,01:00,4,R,ugm-3 (TEOM FDMS),8,R,ugm-3 (TEOM FDMS),4,R,ugm-3 (TEOM FDMS)
07-01-2013,02:00,2,R,ugm-3 (TEOM FDMS),7,R,ugm-3 (TEOM FDMS),5,R,ugm-3 (TEOM FDMS)
07-01-2013,03:00,6,R,ugm-3 (TEOM FDMS),12,R,ugm-3 (TEOM FDMS),6,R,ugm-3 (TEOM FDMS)
07-01-2013,04:00,4,R,ugm-3 (TEOM FDMS),8,R,ugm-3 (TEOM FDMS),4,R,ugm-3 (TEOM FDMS)
07-01-2013,05:00,3,R,ugm-3 (TEOM FDMS),8,R,ugm-3 (TEOM FDMS),5,R,ugm-3 (TEOM FDMS)
07-01-2013,06:00,2,R,ugm-3 (TEOM FDMS),4,R,ugm-3 (TEOM FDMS),2,R,ugm-3 (TEOM FDMS)
07-01-2013,07:00,4,R,ugm-3 (TEOM FDMS),6,R,ugm-3 (TEOM FDMS),2,R,ugm-3 (TEOM FDMS)
07-01-2013,08:00,6,R,ugm-3 (TEOM FDMS),10,R,ugm-3 (TEOM FDMS),4,R,ugm-3 (TEOM FDMS)
07-01-2013,09:00,6,R,ugm-3 (TEOM FDMS),12,R,ugm-3 (TEOM FDMS),5,R,ugm-3 (TEOM FDMS)
07-01-2013,10:00,6,R,ugm-3 (TEOM FDMS),12,R,ugm-3 (TEOM FDMS),6,R,ugm-3 (TEOM FDMS)
07-01-2013,11:00,8,R,ugm-3 (TEOM FDMS),9,R,ugm-3 (TEOM FDMS),1,R,ugm-3 (TEOM FDMS)
07-01-2013,12:00,6,R,ugm-3 (TEOM FDMS),14,R,ugm-3 (TEOM FDMS),8,R,ugm-3 (TEOM FDMS)
07-01-2013,13:00,7,R,ugm-3 (TEOM FDMS),12,R,ugm-3 (TEOM FDMS),5,R,ugm-3 (TEOM FDMS)
07-01-2013,14:00,8,R,ugm-3 (TEOM FDMS),10,R,ugm-3 (TEOM FDMS),2,R,ugm-3 (TEOM FDMS)
07-01-2013,15:00,7,R,ugm-3 (TEOM FDMS),13,R,ugm-3 (TEOM FDMS),6,R,ugm-3 (TEOM FDMS)
07-01-2013,16:00,10,R,ugm-3 (TEOM FDMS),14,R,ugm-3 (TEOM FDMS),4,R,ugm-3 (TEOM FDMS)
07-01-2013,17:00,11,R,ugm-3 (TEOM FDMS),13,R,ugm-3 (TEOM FDMS),3,R,ugm-3 (TEOM FDMS)
07-01-2013,18:00,9,R,ugm-3 (TEOM FDMS),13,R,ugm-3 (TEOM FDMS),4,R,ugm-3 (TEOM FDMS)
07-01-2013,19:00,9,R,ugm-3 (TEOM FDMS),13,R,ugm-3 (TEOM FDMS),4,R,ugm-3 (TEOM FDMS)
07-01-2013,20:00,11,R,ugm-3 (TEOM FDMS),13,R,ugm-3 (TEOM FDMS),1,R,ugm-3 (TEOM FDMS)
07-01-2013,21:00,11,R,ugm-3 (TEOM FDMS),14,R,ugm-3 (TEOM FDMS),3,R,ugm-3 (TEOM FDMS)
07-01-2013,22:00,11,R,ugm-3 (TEOM FDMS),15,R,ugm-3 (TEOM FDMS),4,R,ugm-3 (TEOM FDMS)
07-01-2013,23:00,11,R,ugm-3 (TEOM FDMS),19,R,ugm-3 (TEOM FDMS),8,R,ugm-3 (TEOM FDMS)
07-01-2013,24:00,12,R,ugm-3 (TEOM FDMS),15,R,ugm-3 (TEOM FDMS),3,R,ugm-3 (TEOM FDMS)
08-01-2013,01:00,12,R,ugm-3 (TEOM FDMS),15,R,ugm-3 (TEOM FDMS),3,R,ugm-3 (TEOM FDMS)
08-01-2013,02:00,10,R,ugm-3 (TEOM FDMS),13,R,ugm-3 (TEOM FDMS),2,R,ugm-3 (TEOM FDMS)
08-01-2013,03:00,5,R,ugm-3 (TEOM FDMS),8,R,ugm-3 (TEOM FDMS),3,R,ugm-3 (TEOM FDMS)
08-01-2013,04:00,5,R,ugm-3 (TEOM FDMS),7,R,ugm-3 (TEOM FDMS),3,R,ugm-3 (TEOM FDMS)
08-01-2013,05:00,5,R,ugm-3 (TEOM FDMS),7,R,ugm-3 (TEOM FDMS),2,R,ugm-3 (TEOM FDMS)
08-01-2013,06:00,4,R,ugm-3 (TEOM FDMS),4,R,ugm-3 (TEOM FDMS),1,R,ugm-3 (TEOM FDMS)
08-01-2013,07:00,5,R,ugm-3 (TEOM FDMS),8,R,ugm-3 (TEOM FDMS),2,R,ugm-3 (TEOM FDMS)
08-01-2013,08:00,7,R,ugm-3 (TEOM FDMS),8,R,ugm-3 (TEOM FDMS),2,R,ugm-3 (TEOM FDMS)
08-01-2013,09:00,12,R,ugm-3 (TEOM FDMS),13,R,ugm-3 (TEOM FDMS),1,R,ugm-3 (TEOM FDMS)
08-01-2013,10:00,9,R,ugm-3 (TEOM FDMS),9,R,ugm-3 (TEOM FDMS),-0,R,ugm-3 (TEOM FDMS)
08-01-2013,11:00,12,R,ugm-3 (TEOM FDMS),16,R,ugm-3 (TEOM FDMS),5,R,ugm-3 (TEOM FDMS)
08-01-2013,12:00,8,R,ugm-3 (TEOM FDMS),9,R,ugm-3 (TEOM FDMS),1,R,ugm-3 (TEOM FDMS)
08-01-2013,13:00,6,R,ugm-3 (TEOM FDMS),9,R,ugm-3 (TEOM FDMS),3,R,ugm-3 (TEOM FDMS)
08-01-2013,14:00,6,R,ugm-3 (TEOM FDMS),10,R,ugm-3 (TEOM FDMS),4,R,ugm-3 (TEOM FDMS)
08-01-2013,15:00,7,R,ugm-3 (TEOM FDMS),7,R,ugm-3 (TEOM FDMS),0,R,ugm-3 (TEOM FDMS)
08-01-2013,16:00,10,R,ugm-3 (TEOM FDMS),12,R,ugm-3 (TEOM FDMS),3,R,ugm-3 (TEOM FDMS)
08-01-2013,17:00,14,R,ugm-3 (TEOM FDMS),16,R,ugm-3 (TEOM FDMS),3,R,ugm-3 (TEOM FDMS)
08-01-2013,18:00,12,R,ugm-3 (TEOM FDMS),14,R,ugm-3 (TEOM FDMS),2,R,ugm-3 (TEOM FDMS)
08-01-2013,19:00,16,R,ugm-3 (TEOM FDMS),18,R,ugm-3 (TEOM FDMS),2,R,ugm-3 (TEOM FDMS)
08-01-2013,20:00,13,R,ugm-3 (TEOM FDMS),15,R,ugm-3 (TEOM FDMS),2,R,ugm-3 (TEOM FDMS)
08-01-2013,21:00,13,R,ugm-3 (TEOM FDMS),16,R,ugm-3 (TEOM FDMS),2,R,ugm-3 (TEOM FDMS)
08-01-2013,22:00,10,R,ugm-3 (TEOM FDMS),16,R,ugm-3 (TEOM FDMS),5,R,ugm-3 (TEOM FDMS)
08-01-2013,23:00,6,R,ugm-3 (TEOM FDMS),11,R,ugm-3 (TEOM FDMS),5,R,ugm-3 (TEOM FDMS)
08-01-2013,24:00,6,R,ugm-3 (TEOM FDMS),11,R,ugm-3 (TEOM FDMS),5,R,ugm-3 (TEOM FDMS)
09-01-2013,01:00,4,R,ugm-3 (TEOM FDMS),9,R,ugm-3 (TEOM FDMS),6,R,ugm-3 (TEOM FDMS)
09-01-2013,02:00,4,R,ugm-3 (TEOM FDMS),8,R,ugm-3 (TEOM FDMS),3,R,ugm-3 (TEOM FDMS)
09-01-2013,03:00,4,R,ugm-3 (TEOM FDMS),7,R,ugm-3 (TEOM FDMS),3,R,ugm-3 (TEOM FDMS)
09-01-2013,04:00,4,R,ugm-3 (TEOM FDMS),8,R,ugm-3 (TEOM FDMS),4,R,ugm-3 (TEOM FDMS)
09-01-2013,05:00,1,R,ugm-3 (TEOM FDMS),4,R,ugm-3 (TEOM FDMS),3,R,ugm-3 (TEOM FDMS)
09-01-2013,06:00,2,R,ugm-3 (TEOM FDMS),3,R,ugm-3 (TEOM FDMS),2,R,ugm-3 (TEOM FDMS)
09-01-2013,07:00,6,R,ugm-3 (TEOM FDMS),9,R,ugm-3 (TEOM FDMS),3,R,ugm-3 (TEOM FDMS)
09-01-2013,08:00,11,R,ugm-3 (TEOM FDMS),14,R,ugm-3 (TEOM FDMS),3,R,ugm-3 (TEOM FDMS)
09-01-2013,09:00,9,R,ugm-3 (TEOM FDMS),10,R,ugm-3 (TEOM FDMS),1,R,ugm-3 (TEOM FDMS)
09-01-2013,10:00,8,R,ugm-3 (TEOM FDMS),13,R,ugm-3 (TEOM FDMS),5,R,ugm-3 (TEOM FDMS)
09-01-2013,11:00,6,R,ugm-3 (TEOM FDMS),10,R,ugm-3 (TEOM FDMS),4,R,ugm-3 (TEOM FDMS)
09-01-2013,12:00,6,R,ugm-3 (TEOM FDMS),11,R,ugm-3 (TEOM FDMS),5,R,ugm-3 (TEOM FDMS)
09-01-2013,13:00,3,R,ugm-3 (TEOM FDMS),7,R,ugm-3 (TEOM FDMS),4,R,ugm-3 (TEOM FDMS)
09-01-2013,14:00,4,R,ugm-3 (TEOM FDMS),5,R,ugm-3 (TEOM FDMS),1,R,ugm-3 (TEOM FDMS)
09-01-2013,15:00,9,R,ugm-3 (TEOM FDMS),12,R,ugm-3 (TEOM FDMS),3,R,ugm-3 (TEOM FDMS)
09-01-2013,16:00,5,R,ugm-3 (TEOM FDMS),10,R,ugm-3 (TEOM FDMS),5,R,ugm-3 (TEOM FDMS)
09-01-2013,17:00,8,R,ugm-3 (TEOM FDMS),11,R,ugm-3 (TEOM FDMS),3,R,ugm-3 (TEOM FDMS)
09-01-2013,18:00,9,R,ugm-3 (TEOM FDMS),12,R,ugm-3 (TEOM FDMS),3,R,ugm-3 (TEOM FDMS)
09-01-2013,19:00,11,R,ugm-3 (TEOM FDMS),13,R,ugm-3 (TEOM FDMS),1,R,ugm-3 (TEOM FDMS)
09-01-2013,20:00,13,R,ugm-3 (TEOM FDMS),18,R,ugm-3 (TEOM FDMS),4,R,ugm-3 (TEOM FDMS)
09-01-2013,21:00,7,R,ugm-3 (TEOM FDMS),13,R,ugm-3 (TEOM FDMS),6,R,ugm-3 (TEOM FDMS)
09-01-2013,22:00,6,R,ugm-3 (TEOM FDMS),10,R,ugm-3 (TEOM FDMS),4,R,ugm-3 (TEOM FDMS)
09-01-2013,23:00,10,R,ugm-3 (TEOM FDMS),14,R,ugm-3 (TEOM FDMS),4,R,ugm-3 (TEOM FDMS)
09-01-2013,24:00,9,R,ugm-3 (TEOM FDMS),13,R,ugm-3 (TEOM FDMS),4,R,ugm-3 (TEOM FDMS)
10-01-2013,01:00,10,R,ugm-3 (TEOM FDMS),15,R,ugm-3 (TEOM FDMS),5,R,ugm-3 (TEOM FDMS)
10-01-2013,02:00,13,R,ugm-3 (TEOM FDMS),18,R,ugm-3 (TEOM FDMS),5,R,ugm-3 (TEOM FDMS)
10-01-2013,03:00,18,R,ugm-3 (TEOM FDMS),23,R,ugm-3 (TEOM FDMS),5,R,ugm-3 (TEOM FDMS)
10-01-2013,04:00,18,R,ugm-3 (TEOM FDMS),21,R,ugm-3 (TEOM FDMS),3,R,ugm-3 (TEOM FDMS)
10-01-2013,05:00,7,R,ugm-3 (TEOM FDMS),10,R,ugm-3 (TEOM FDMS),3,R,ugm-3 (TEOM FDMS)
10-01-2013,06:00,6,R,ugm-3 (TEOM FDMS),10,R,ugm-3 (TEOM FDMS),3,R,ugm-3 (TEOM FDMS)
10-01-2013,07:00,13,R,ugm-3 (TEOM FDMS),16,R,ugm-3 (TEOM FDMS),3,R,ugm-3 (TEOM FDMS)
10-01-2013,08:00,9,R,ugm-3 (TEOM FDMS),13,R,ugm-3 (TEOM FDMS),3,R,ugm-3 (TEOM FDMS)
10-01-2013,09:00,11,R,ugm-3 (TEOM FDMS),15,R,ugm-3 (TEOM FDMS),4,R,ugm-3 (TEOM FDMS)
10-01-2013,10:00,12,R,ugm-3 (TEOM FDMS),15,R,ugm-3 (TEOM FDMS),3,R,ugm-3 (TEOM FDMS)
10-01-2013,11:00,11,R,ugm-3 (TEOM FDMS),15,R,ugm-3 (TEOM FDMS),4,R,ugm-3 (TEOM FDMS)
10-01-2013,12:00,14,R,ugm-3 (TEOM FDMS),21,R,ugm-3 (TEOM FDMS),7,R,ugm-3 (TEOM FDMS)
10-01-2013,13:00,12,R,ugm-3 (TEOM FDMS),20,R,ugm-3 (TEOM FDMS),8,R,ugm-3 (TEOM FDMS)
10-01-2013,14:00,12,R,ugm-3 (TEOM FDMS),16,R,ugm-3 (TEOM FDMS),4,R,ugm-3 (TEOM FDMS)
10-01-2013,15:00,12,R,ugm-3 (TEOM FDMS),19,R,ugm-3 (TEOM FDMS),6,R,ugm-3 (TEOM FDMS)
10-01-2013,16:00,13,R,ugm-3 (TEOM FDMS),20,R,ugm-3 (TEOM FDMS),7,R,ugm-3 (TEOM FDMS)
10-01-2013,17:00,16,R,ugm-3 (TEOM FDMS),20,R,ugm-3 (TEOM FDMS),5,R,ugm-3 (TEOM FDMS)
10-01-2013,18:00,19,R,ugm-3 (TEOM FDMS),23,R,ugm-3 (TEOM FDMS),5,R,ugm-3 (TEOM FDMS)
10-01-2013,19:00,17,R,ugm-3 (TEOM FDMS),21,R,ugm-3 (TEOM FDMS),4,R,ugm-3 (TEOM FDMS)
10-01-2013,20:00,18,R,ugm-3 (TEOM FDMS),25,R,ugm-3 (TEOM FDMS),7,R,ugm-3 (TEOM FDMS)
10-01-2013,21:00,18,R,ugm-3 (TEOM FDMS),25,R,ugm-3 (TEOM FDMS),7,R,ugm-3 (TEOM FDMS)
10-01-2013,22:00,18,R,ugm-3 (TEOM FDMS),23,R,ugm-3 (TEOM FDMS),5,R,ugm-3 (TEOM FDMS)
10-01-2013,23:00,19,R,ugm-3 (TEOM FDMS),26,R,ugm-3 (TEOM FDMS),6,R,ugm-3 (TEOM FDMS)
10-01-2013,24:00,18,R,ugm-3 (TEOM FDMS),25,R,ugm-3 (TEOM FDMS),7,R,ugm-3 (TEOM FDMS)
11-01-2013,01:00,17,R,ugm-3 (TEOM FDMS),24,R,ugm-3 (TEOM FDMS),7,R,ugm-3 (TEOM FDMS)
11-01-2013,02:00,16,R,ugm-3 (TEOM FDMS),24,R,ugm-3 (TEOM FDMS),8,R,ugm-3 (TEOM FDMS)
11-01-2013,03:00,16,R,ugm-3 (TEOM FDMS),24,R,ugm-3 (TEOM FDMS),8,R,ugm-3 (TEOM FDMS)
11-01-2013,04:00,14,R,ugm-3 (TEOM FDMS),20,R,ugm-3 (TEOM FDMS),6,R,ugm-3 (TEOM FDMS)
11-01-2013,05:00,17,R,ugm-3 (TEOM FDMS),24,R,ugm-3 (TEOM FDMS),8,R,ugm-3 (TEOM FDMS)
11-01-2013,06:00,17,R,ugm-3 (TEOM FDMS),23,R,ugm-3 (TEOM FDMS),6,R,ugm-3 (TEOM FDMS)
11-01-2013,07:00,20,R,ugm-3 (TEOM FDMS),27,R,ugm-3 (TEOM FDMS),7,R,ugm-3 (TEOM FDMS)
11-01-2013,08:00,16,R,ugm-3 (TEOM FDMS),23,R,ugm-3 (TEOM FDMS),6,R,ugm-3 (TEOM FDMS)
11-01-2013,09:00,17,R,ugm-3 (TEOM FDMS),22,R,ugm-3 (TEOM FDMS),5,R,ugm-3 (TEOM FDMS)
11-01-2013,10:00,19,R,ugm-3 (TEOM FDMS),25,R,ugm-3 (TEOM FDMS),6,R,ugm-3 (TEOM FDMS)
11-01-2013,11:00,23,R,ugm-3 (TEOM FDMS),32,R,ugm-3 (TEOM FDMS),9,R,ugm-3 (TEOM FDMS)
11-01-2013,12:00,22,R,ugm-3 (TEOM FDMS),33,R,ugm-3 (TEOM FDMS),11,R,ugm-3 (TEOM FDMS)
11-01-2013,13:00,25,R,ugm-3 (TEOM FDMS),31,R,ugm-3 (TEOM FDMS),7,R,ugm-3 (TEOM FDMS)
11-01-2013,14:00,22,R,ugm-3 (TEOM FDMS),31,R,ugm-3 (TEOM FDMS),9,R,ugm-3 (TEOM FDMS)
11-01-2013,15:00,23,R,ugm-3 (TEOM FDMS),31,R,ugm-3 (TEOM FDMS),8,R,ugm-3 (TEOM FDMS)
11-01-2013,16:00,23,R,ugm-3 (TEOM FDMS),31,R,ugm-3 (TEOM FDMS),8,R,ugm-3 (TEOM FDMS)
11-01-2013,17:00,23,R,ugm-3 (TEOM FDMS),32,R,ugm-3 (TEOM FDMS),9,R,ugm-3 (TEOM FDMS)
11-01-2013,18:00,24,R,ugm-3 (TEOM FDMS),33,R,ugm-3 (TEOM FDMS),10,R,ugm-3 (TEOM FDMS)
11-01-2013,19:00,22,R,ugm-3 (TEOM FDMS),32,R,ugm-3 (TEOM FDMS),10,R,ugm-3 (TEOM FDMS)
11-01-2013,20:00,24,R,ugm-3 (TEOM FDMS),32,R,ugm-3 (TEOM FDMS),8,R,ugm-3 (TEOM FDMS)
11-01-2013,21:00,26,R,ugm-3 (TEOM FDMS),36,R,ugm-3 (TEOM FDMS),10,R,ugm-3 (TEOM FDMS)
11-01-2013,22:00,27,R,ugm-3 (TEOM FDMS),35,R,ugm-3 (TEOM FDMS),8,R,ugm-3 (TEOM FDMS)
11-01-2013,23:00,32,R,ugm-3 (TEOM FDMS),42,R,ugm-3 (TEOM FDMS),10,R,ugm-3 (TEOM FDMS)
11-01-2013,24:00,27,R,ugm-3 (TEOM FDMS),38,R,ugm-3 (TEOM FDMS),12,R,ugm-3 (TEOM FDMS)
12-01-2013,01:00,26,R,ugm-3 (TEOM FDMS),35,R,ugm-3 (TEOM FDMS),9,R,ugm-3 (TEOM FDMS)
12-01-2013,02:00,22,R,ugm-3 (TEOM FDMS),31,R,ugm-3 (TEOM FDMS),8,R,ugm-3 (TEOM FDMS)
12-01-2013,03:00,19,R,ugm-3 (TEOM FDMS),30,R,ugm-3 (TEOM FDMS),11,R,ugm-3 (TEOM FDMS)
12-01-2013,04:00,17,R,ugm-3 (TEOM FDMS),28,R,ugm-3 (TEOM FDMS),11,R,ugm-3 (TEOM FDMS)
12-01-2013,05:00,15,R,ugm-3 (TEOM FDMS),24,R,ugm-3 (TEOM FDMS),9,R,ugm-3 (TEOM FDMS)
12-01-2013,06:00,14,R,ugm-3 (TEOM FDMS),22,R,ugm-3 (TEOM FDMS),8,R,ugm-3 (TEOM FDMS)
12-01-2013,07:00,14,R,ugm-3 (TEOM FDMS),22,R,ugm-3 (TEOM FDMS),7,R,ugm-3 (TEOM FDMS)
12-01-2013,08:00,10,R,ugm-3 (TEOM FDMS),18,R,ugm-3 (TEOM FDMS),9,R,ugm-3 (TEOM FDMS)
12-01-2013,09:00,7,R,ugm-3 (TEOM FDMS),15,R,ugm-3 (TEOM FDMS),8,R,ugm-3 (TEOM FDMS)
12-01-2013,10:00,6,R,ugm-3 (TEOM FDMS),9,R,ugm-3 (TEOM FDMS),3,R,ugm-3 (TEOM FDMS)
12-01-2013,11:00,7,R,ugm-3 (TEOM FDMS),9,R,ugm-3 (TEOM FDMS),2,R,ugm-3 (TEOM FDMS)
12-01-2013,12:00,10,R,ugm-3 (TEOM FDMS),13,R,ugm-3 (TEOM FDMS),3,R,ugm-3 (TEOM FDMS)
12-01-2013,13:00,9,R,ugm-3 (TEOM FDMS),12,R,ugm-3 (TEOM FDMS),3,R,ugm-3 (TEOM FDMS)
12-01-2013,14:00,14,R,ugm-3 (TEOM FDMS),18,R,ugm-3 (TEOM FDMS),4,R,ugm-3 (TEOM FDMS)
12-01-2013,15:00,13,R,ugm-3 (TEOM FDMS),18,R,ugm-3 (TEOM FDMS),5,R,ugm-3 (TEOM FDMS)
12-01-2013,16:00,13,R,ugm-3 (TEOM FDMS),20,R,ugm-3 (TEOM FDMS),7,R,ugm-3 (TEOM FDMS)
12-01-2013,17:00,9,R,ugm-3 (TEOM FDMS),11,R,ugm-3 (TEOM FDMS),3,R,ugm-3 (TEOM FDMS)